Regional Weather Roundup
Issued by NWS

Home | Current Version | Previous Version | Text Only | Print | Product List | Glossary Off
Versions: 1 2 3 4 5 6 7 8 9 10 11 12 13 14 15 16 17 18 19 20 21 22 23 24 25 26 27 28 29 30 31 32 33 34 35 36 37 38 39 40 41 42 43 44 45 46 47 48 49 50

547
ASUS43 KLMK 210602
RWRKY
KENTUCKY REGIONAL WEATHER ROUNDUP
NATIONAL WEATHER SERVICE LOUISVILLE KY
100 AM EST SUN JAN 21 2018

NOTE "FAIR" INDICATES FEW OR NO CLOUDS BELOW 12,000 FEET
WITH NO SIGNIFICANT WEATHER AND/OR OBSTRUCTIONS TO VISIBILITY.

KYZ001>023-026-027-061>063-070>075-210700-
WESTERN AND SOUTH CENTRAL KENTUCKY

CITY           SKY/WX    TMP DP  RH WIND       PRES   REMARKS
PADUCAH        MOCLDY    50  41  71 S8        30.06F
HENDERSON      MOCLDY    46  41  82 S6        30.07F
OWENSBORO      CLOUDY    44  41  89 S6        30.09F
HOPKINSVILLE   FAIR      53  42  66 S8        30.10F
BOWLING GREEN  CLOUDY    52  41  66 S6        30.14F
GLASGOW        NOT AVBL
$$

KYZ024-025-028>034-038-045-046-053-210700-
NORTH CENTRAL KENTUCKY

CITY           SKY/WX    TMP DP  RH WIND       PRES   REMARKS
LOUISVILLE/SDF CLOUDY    54  40  59 S8        30.11R
LOUISVILLE/LOU CLOUDY    50  41  71 S3        30.12S
FORT KNOX      CLOUDY    49  40  71 S7        30.10S
$$

KYZ035>037-039>044-047>052-055>060-089>105-210700-
NORTHEAST KENTUCKY

CITY           SKY/WX    TMP DP  RH WIND       PRES   REMARKS
LEXINGTON      CLOUDY    50  37  61 S10       30.14R
COVINGTON      CLOUDY    45  44  97 S8        30.09S
FRANKFORT      MOCLDY    49  36  61 S6        30.11R
$$

KYZ054-064>069-076>088-106>120-210700-
SOUTHEAST KENTUCKY

CITY           SKY/WX    TMP DP  RH WIND       PRES   REMARKS
JACKSON        FAIR      46  34  62 SW3       30.16F
LONDON         CLOUDY    42  34  73 CALM      30.18F
SOMERSET       NOT AVBL
MIDDLESBORO    CLOUDY    35  33  92 CALM      30.22F
MONTICELLO     CLOUDY    49  37  63 SE6       30.18F
$$





USA.gov is the U.S. government's official web portal to all federal, state and local government web resources and services.